D52KF EDDF-EGLL

Flight info

Callsign D52KF
Flight time N/A
Altitude 40000
Route OBOKA3W OBOKA Z29 TORNU DCT ABNED L980 LOGAN
Aircraft CL60/M-SBDE1E2E3FGHIJ4J5J7M3RWXYZ/LB1V1D1

Departure

Time N/A
Airport Frankfurt Main Airport (EDDF)

Arrival

Time 2026-05-05 12:01
Airport London Heathrow Airport (EGLL)
Time Latitude Longitude Altitude Speed Heading
2026-05-05 11:12 51.10546 6.21287 35870 ft 446 kts 291°
2026-05-05 11:12 51.11929 6.16836 35878 ft 446 kts 291°
2026-05-05 11:13 51.14391 6.07798 35888 ft 439 kts 281°
2026-05-05 11:13 51.15962 5.98259 35890 ft 439 kts 280°
2026-05-05 11:14 51.17497 5.88805 35892 ft 439 kts 280°
2026-05-05 11:14 51.19353 5.79466 35890 ft 444 kts 288°
2026-05-05 11:15 51.21768 5.70408 35889 ft 445 kts 288°
2026-05-05 11:15 51.24177 5.61304 35899 ft 446 kts 288°
2026-05-05 11:16 51.26568 5.52223 35895 ft 446 kts 288°
2026-05-05 11:16 51.28965 5.43070 35905 ft 446 kts 288°
2026-05-05 11:17 51.31337 5.33974 35903 ft 446 kts 288°
2026-05-05 11:17 51.33732 5.24746 35899 ft 446 kts 288°
2026-05-05 11:18 51.36111 5.15538 35898 ft 446 kts 288°
2026-05-05 11:18 51.38467 5.06380 35895 ft 446 kts 288°
2026-05-05 11:19 51.40822 4.97187 35898 ft 446 kts 288°
2026-05-05 11:19 51.43163 4.88006 35906 ft 446 kts 288°
2026-05-05 11:20 51.45505 4.78786 35908 ft 447 kts 288°
2026-05-05 11:20 51.47828 4.69602 35903 ft 447 kts 288°
2026-05-05 11:21 51.50144 4.60407 35898 ft 447 kts 288°
2026-05-05 11:21 51.52465 4.51154 35912 ft 447 kts 288°
2026-05-05 11:22 51.54797 4.41817 35912 ft 447 kts 288°
2026-05-05 11:22 51.57122 4.32469 35910 ft 447 kts 287°
2026-05-05 11:23 51.59425 4.23169 35912 ft 447 kts 287°
2026-05-05 11:23 51.61714 4.13884 35914 ft 448 kts 287°
2026-05-05 11:24 51.64019 4.04496 35913 ft 448 kts 287°
2026-05-05 11:24 51.66315 3.95105 35915 ft 447 kts 288°
2026-05-05 11:25 51.68613 3.85667 35927 ft 448 kts 288°
2026-05-05 11:25 51.70875 3.76329 35927 ft 449 kts 288°
2026-05-05 11:26 51.73144 3.66929 35926 ft 449 kts 288°
2026-05-05 11:26 51.75391 3.57578 35929 ft 449 kts 288°
2026-05-05 11:27 51.77628 3.48231 35939 ft 449 kts 288°
2026-05-05 11:27 51.79878 3.38783 35937 ft 449 kts 288°
2026-05-05 11:28 51.82079 3.29503 35939 ft 449 kts 287°
2026-05-05 11:28 51.84003 3.19916 35944 ft 444 kts 278°
2026-05-05 11:29 51.84446 3.10095 35952 ft 438 kts 263°
2026-05-05 11:29 51.83847 3.00260 35940 ft 438 kts 261°
2026-05-05 11:30 51.83213 2.90438 35935 ft 438 kts 261°
2026-05-05 11:30 51.82568 2.80641 35942 ft 439 kts 262°
2026-05-05 11:31 51.81912 2.70822 35946 ft 439 kts 261°
2026-05-05 11:31 51.81245 2.61008 35940 ft 440 kts 262°
2026-05-05 11:32 51.80566 2.51171 35645 ft 442 kts 262°
2026-05-05 11:32 51.80223 2.46253 35194 ft 438 kts 261°
2026-05-05 11:32 51.79882 2.41383 34553 ft 435 kts 261°
2026-05-05 11:32 51.79541 2.36560 33914 ft 431 kts 261°
2026-05-05 11:33 51.79211 2.31921 33376 ft 431 kts 261°
2026-05-05 11:33 51.78860 2.27019 32785 ft 433 kts 261°
2026-05-05 11:33 51.78509 2.22139 32211 ft 435 kts 261°
2026-05-05 11:33 51.78211 2.17322 31622 ft 435 kts 262°
2026-05-05 11:34 51.77934 2.12508 31055 ft 435 kts 262°
2026-05-05 11:34 51.77649 2.07631 30461 ft 439 kts 262°
2026-05-05 11:34 51.77361 2.02729 29892 ft 437 kts 262°
2026-05-05 11:34 51.77070 1.97831 29294 ft 435 kts 262°
2026-05-05 11:35 51.76785 1.93049 28743 ft 431 kts 262°
2026-05-05 11:35 51.76495 1.88238 28158 ft 428 kts 262°
2026-05-05 11:35 51.76208 1.83500 27603 ft 425 kts 262°
2026-05-05 11:35 51.75916 1.78729 27022 ft 422 kts 262°
2026-05-05 11:36 51.75630 1.74077 26473 ft 419 kts 262°
2026-05-05 11:36 51.75341 1.69423 25915 ft 417 kts 262°
2026-05-05 11:36 51.75051 1.64782 25368 ft 414 kts 263°
2026-05-05 11:36 51.74765 1.60225 24825 ft 411 kts 263°
2026-05-05 11:37 51.74476 1.55674 24238 ft 408 kts 263°
2026-05-05 11:37 51.74186 1.51118 23595 ft 404 kts 263°
2026-05-05 11:37 51.73900 1.46654 22908 ft 400 kts 263°
2026-05-05 11:37 51.73611 1.42193 22329 ft 395 kts 263°
2026-05-05 11:38 51.73327 1.37817 21736 ft 393 kts 263°
2026-05-05 11:38 51.73042 1.33463 21150 ft 390 kts 263°
2026-05-05 11:38 51.72754 1.29081 20556 ft 387 kts 263°
2026-05-05 11:38 51.72470 1.24798 19981 ft 384 kts 263°
2026-05-05 11:39 51.72187 1.20545 19404 ft 381 kts 263°
2026-05-05 11:39 51.71905 1.16325 18836 ft 378 kts 263°
2026-05-05 11:39 51.71623 1.12135 18263 ft 376 kts 263°
2026-05-05 11:39 51.71341 1.07975 17713 ft 373 kts 263°
2026-05-05 11:40 51.71059 1.03835 17147 ft 371 kts 263°
2026-05-05 11:40 51.70779 0.99751 16595 ft 368 kts 264°
2026-05-05 11:40 51.70498 0.95658 16037 ft 367 kts 264°
2026-05-05 11:40 51.70220 0.91645 15494 ft 362 kts 264°
2026-05-05 11:41 51.69939 0.87611 15041 ft 357 kts 264°
2026-05-05 11:41 51.69664 0.83674 14654 ft 352 kts 264°
2026-05-05 11:41 51.69388 0.79749 14226 ft 348 kts 265°
2026-05-05 11:41 51.69121 0.75969 13801 ft 340 kts 265°
2026-05-05 11:42 51.68851 0.72172 13385 ft 335 kts 265°
2026-05-05 11:42 51.68588 0.68487 12961 ft 328 kts 265°
2026-05-05 11:42 51.68329 0.64881 12546 ft 321 kts 265°
2026-05-05 11:42 51.68077 0.61372 12157 ft 314 kts 265°
2026-05-05 11:43 51.67826 0.57910 11765 ft 308 kts 265°
2026-05-05 11:43 51.67579 0.54508 11374 ft 303 kts 265°
2026-05-05 11:43 51.67335 0.51156 11012 ft 298 kts 265°
2026-05-05 11:43 51.67094 0.47865 10631 ft 294 kts 265°
2026-05-05 11:44 51.66855 0.44624 10273 ft 289 kts 265°
2026-05-05 11:44 51.66618 0.41402 9897 ft 287 kts 265°
2026-05-05 11:44 51.66385 0.38255 9541 ft 284 kts 265°
2026-05-05 11:44 51.66150 0.35097 9194 ft 280 kts 265°
2026-05-05 11:45 51.65922 0.32043 8815 ft 278 kts 264°
2026-05-05 11:45 51.65688 0.28909 8507 ft 271 kts 264°
2026-05-05 11:45 51.65482 0.25915 8159 ft 267 kts 266°
2026-05-05 11:45 51.65311 0.22980 7971 ft 258 kts 266°
2026-05-05 11:46 51.65151 0.20187 7958 ft 248 kts 266°
2026-05-05 11:46 51.64992 0.17394 7954 ft 250 kts 266°
2026-05-05 11:46 51.64831 0.14544 7968 ft 254 kts 266°
2026-05-05 11:46 51.64669 0.11583 7951 ft 275 kts 266°
2026-05-05 11:47 51.64502 0.08455 7957 ft 280 kts 266°
2026-05-05 11:47 51.64339 0.05359 7958 ft 273 kts 266°
2026-05-05 11:47 51.64178 0.02386 7975 ft 255 kts 266°
2026-05-05 11:47 51.64022 -0.00453 7973 ft 251 kts 266°
2026-05-05 11:48 51.63703 -0.06049 7962 ft 251 kts 266°
2026-05-05 11:48 51.63543 -0.08846 7961 ft 251 kts 266°
2026-05-05 11:48 51.63381 -0.11647 7962 ft 251 kts 266°
2026-05-05 11:49 51.63217 -0.14460 7961 ft 251 kts 266°
2026-05-05 11:49 51.63055 -0.17280 7961 ft 251 kts 266°
2026-05-05 11:49 51.62896 -0.20107 7963 ft 250 kts 266°
2026-05-05 11:49 51.62740 -0.22905 7962 ft 250 kts 266°
2026-05-05 11:50 51.62588 -0.25661 7962 ft 250 kts 266°
2026-05-05 11:50 51.62431 -0.28485 7962 ft 250 kts 266°
2026-05-05 11:50 51.62271 -0.31256 7959 ft 250 kts 266°
2026-05-05 11:50 51.62109 -0.34043 7961 ft 250 kts 266°
2026-05-05 11:51 51.61941 -0.36864 7961 ft 251 kts 266°
2026-05-05 11:51 51.61774 -0.39649 7959 ft 251 kts 266°
2026-05-05 11:51 51.61607 -0.42445 7963 ft 251 kts 266°
2026-05-05 11:51 51.61440 -0.45244 7958 ft 251 kts 266°
2026-05-05 11:52 51.61269 -0.48087 7961 ft 251 kts 266°
2026-05-05 11:52 51.61099 -0.50908 7959 ft 251 kts 266°
2026-05-05 11:52 51.60643 -0.53580 7935 ft 248 kts 245°
2026-05-05 11:52 51.59802 -0.56055 7700 ft 251 kts 242°
2026-05-05 11:53 51.58936 -0.58466 7525 ft 250 kts 241°
2026-05-05 11:53 51.58064 -0.60890 7305 ft 251 kts 241°
2026-05-05 11:53 51.57196 -0.63301 7092 ft 250 kts 241°
2026-05-05 11:53 51.56320 -0.65734 6875 ft 249 kts 240°
2026-05-05 11:54 51.55448 -0.68160 6654 ft 248 kts 240°
2026-05-05 11:54 51.54581 -0.70575 6449 ft 247 kts 240°
2026-05-05 11:54 51.53710 -0.72998 6255 ft 247 kts 240°
2026-05-05 11:54 51.52851 -0.75381 5981 ft 251 kts 241°
2026-05-05 11:55 51.51945 -0.77883 5232 ft 266 kts 241°
2026-05-05 11:55 51.50944 -0.80433 4176 ft 282 kts 230°
2026-05-05 11:55 51.49372 -0.82216 3386 ft 271 kts 198°
2026-05-05 11:55 51.47648 -0.82346 3064 ft 230 kts 160°
2026-05-05 11:56 51.46448 -0.80997 3028 ft 202 kts 118°
2026-05-05 11:56 51.46141 -0.78900 3047 ft 193 kts 77°
2026-05-05 11:56 51.46659 -0.76941 3047 ft 190 kts 57°
2026-05-05 11:56 51.47326 -0.75126 3005 ft 189 kts 64°
2026-05-05 11:57 51.47564 -0.73049 2988 ft 192 kts 85°
2026-05-05 11:57 51.47596 -0.70911 2809 ft 189 kts 85°
2026-05-05 11:57 51.47628 -0.68842 2540 ft 178 kts 85°
2026-05-05 11:57 51.47646 -0.66860 2314 ft 179 kts 86°
2026-05-05 11:58 51.47660 -0.64857 2084 ft 180 kts 86°
2026-05-05 11:58 51.47670 -0.62902 1867 ft 165 kts 86°
2026-05-05 11:58 51.47675 -0.61190 1684 ft 141 kts 85°
2026-05-05 11:58 51.47680 -0.59729 1505 ft 123 kts 85°
2026-05-05 11:59 51.47690 -0.58358 1311 ft 122 kts 85°
2026-05-05 11:59 51.47700 -0.56987 1150 ft 120 kts 85°
2026-05-05 11:59 51.47709 -0.55637 984 ft 120 kts 86°
2026-05-05 11:59 51.47715 -0.54305 842 ft 120 kts 86°
2026-05-05 12:00 51.47722 -0.52963 671 ft 119 kts 86°
2026-05-05 12:00 51.47728 -0.51644 525 ft 119 kts 86°
2026-05-05 12:00 51.47735 -0.50302 351 ft 119 kts 86°
2026-05-05 12:00 51.47745 -0.48976 195 ft 119 kts 86°
2026-05-05 12:01 51.47750 -0.47669 92 ft 108 kts 88°
2026-05-05 12:01 51.47757 -0.46813 91 ft 49 kts 90°
2026-05-05 12:01 51.47757 -0.46406 91 ft 29 kts 89°
2026-05-05 12:01 51.47719 -0.46165 91 ft 15 kts 141°
2026-05-05 12:02 51.47628 -0.46062 91 ft 11 kts 146°
2026-05-05 12:02 51.47593 -0.46129 91 ft 12 kts 274°
2026-05-05 12:02 51.47593 -0.46277 91 ft 11 kts 269°
2026-05-05 12:02 51.47593 -0.46331 91 ft 0 kts 269°
2026-05-05 12:03 51.47593 -0.46347 91 ft 5 kts 269°
2026-05-05 12:03 51.47592 -0.46448 91 ft 10 kts 269°
2026-05-05 12:04 51.47592 -0.46569 91 ft 11 kts 269°
2026-05-05 12:04 51.47591 -0.46706 91 ft 10 kts 268°
2026-05-05 12:04 51.47588 -0.46836 91 ft 13 kts 261°
2026-05-05 12:04 51.47541 -0.46935 91 ft 12 kts 168°
2026-05-05 12:05 51.47446 -0.46897 91 ft 15 kts 167°
2026-05-05 12:05 51.47343 -0.46868 91 ft 13 kts 178°
2026-05-05 12:05 51.47257 -0.46867 91 ft 14 kts 180°
2026-05-05 12:05 51.47143 -0.46867 91 ft 18 kts 180°
2026-05-05 12:06 51.47015 -0.46866 91 ft 17 kts 179°
2026-05-05 12:06 51.46932 -0.46866 91 ft 6 kts 189°
2026-05-05 12:06 51.46919 -0.46941 91 ft 5 kts 269°
2026-05-05 12:06 51.46919 -0.46999 91 ft 4 kts 267°
2026-05-05 12:07 51.46919 -0.47017 91 ft 0 kts 269°